Flag for Germany Weather past 2 weeks in Haltern am See, North Rhine-Westphalia, Germany

54 °F

Partly sunny.

Feels Like: 53 °F
Forecast: 43 / 56 °F
Wind: 3 mph from North

Location: Dortmund / Wickede

Current Time: Oct 9, 2015 at 10:59:42 AM

Latest Report: Oct 9, 2015 at 10:20 AM

Visibility: 4 mi

Pressure: 30.18 "Hg

Humidity: 82%

Dew point: 48 °F

Location of Haltern am SeeLocation

Historic Weather in Haltern am See — Graph


Haltern am See temperature yesterday

Maximum temperature yesterday: 55 °F (at 1:50 PM)
Minimum temperature yesterday: 52 °F (at 6:50 PM)
Average temperature yesterday: 53 °F

Past Weeks' High & Low Weather Summary

High68 °F (Oct 3, 2:50 PM)94% (Sep 26, 5:20 AM)30.66 "Hg (Sep 26, 5:20 AM)
Low36 °F (Oct 2, 6:20 AM)39% (Sep 30, 4:20 PM)29.59 "Hg (Oct 6, 6:20 AM)
Average55 °F72%30.20 "Hg
* Reported Sep 24 9:20 AM — Oct 9 9:20 AM, Haltern am See, Weather by CustomWeather, © 2015

Note: Actual official high and low records may vary slightly from our data, if they occured in-between our weather recording intervals... More about our weather records


Haltern am See weather history for previous 24 hours

Time TempWeatherWind HumidityBarometerVisibility
9:20 AM
Fri, Oct 9
52 °FPartly sunny.3 mph88%30.18 "Hg4 mi
8:50 AM52 °FBroken clouds.2 mph88%30.18 "Hg5 mi
8:20 AM52 °FPartly cloudy.2 mph88%30.18 "Hg5 mi
7:50 AM52 °FPassing clouds.1 mph88%30.15 "Hg4 mi
7:20 AM52 °FPassing clouds.1 mph88%30.15 "HgN/A
6:50 AM52 °FPassing clouds.3 mph88%30.15 "HgN/A
6:20 AM52 °FPassing clouds.2 mph88%30.15 "HgN/A
5:50 AM52 °FPassing clouds.2 mph88%30.15 "HgN/A
5:20 AM52 °FPassing clouds.2 mph88%30.18 "HgN/A
10:50 PM
Thu, Oct 8
52 °FPassing clouds.5 mph94%30.18 "HgN/A
10:20 PM54 °FPassing clouds.6 mph88%30.18 "Hg4 mi
9:50 PM52 °FPassing clouds.6 mph94%30.18 "HgN/A
9:20 PM52 °FPassing clouds.6 mph94%30.15 "Hg4 mi
8:50 PM52 °FPassing clouds.7 mph94%30.15 "Hg4 mi
8:20 PM52 °FPassing clouds.7 mph94%30.15 "Hg4 mi
7:50 PM52 °FPartly sunny.5 mph88%30.15 "HgN/A
7:20 PM52 °FOvercast.6 mph88%30.15 "Hg5 mi
6:50 PM52 °FOvercast.6 mph88%30.15 "HgN/A
6:20 PM54 °FOvercast.6 mph82%30.15 "HgN/A
5:50 PM54 °FPartly sunny.6 mph82%30.15 "HgN/A
5:20 PM54 °FMore clouds than sun.6 mph88%30.15 "HgN/A
4:50 PM54 °FOvercast.7 mph88%30.15 "Hg4 mi
4:20 PM54 °FOvercast.6 mph88%30.12 "Hg6 mi
4:04 PM54 °FDrizzle. Overcast.5 mph88%30.12 "Hg6 mi
3:50 PM54 °FDrizzle. Overcast.7 mph88%30.12 "Hg6 mi
3:20 PM54 °FDrizzle. Fog.7 mph88%30.12 "Hg3 mi
2:50 PM54 °FDrizzle. Low clouds.7 mph88%30.12 "Hg4 mi
2:20 PM55 °FDrizzle. Low clouds.6 mph88%30.12 "Hg4 mi
1:50 PM55 °FLight rain. Fog.5 mph88%30.12 "Hg3 mi
1:20 PM54 °FDrizzle. Fog.6 mph94%30.09 "Hg3 mi
12:50 PM54 °FDrizzle. Low clouds.6 mph88%30.09 "Hg4 mi
12:20 PM54 °FSprinkles. Low clouds.7 mph88%30.09 "HgN/A
11:50 AM54 °FSprinkles. Low clouds.8 mph88%30.09 "HgN/A
11:20 AM54 °FDrizzle. More clouds than sun.9 mph88%30.09 "Hg5 mi
10:50 AM54 °FDrizzle. Low clouds.8 mph88%30.09 "Hg4 mi
10:20 AM54 °FDrizzle. Low clouds.8 mph88%30.07 "Hg4 mi
Weather by CustomWeather, © 2015

See weather overviewHow to use our weather pages